Vorticity
3 3 2 4 23 9 -2 1 14 38 25 22 23 19 4 4 -1 3 1 11 8 7
7 3 10 12 10 8 14 27 24 15 13 17 17 -5 -6 3 2 16 10 2 3 -0
6 8 9 9 1 13 12 12 14 12 10 -1 -0 10 22 17 4 -4 17 7 4 12
5 11 7 11 13 19 10 12 0 29 30 5 6 2 2 2 8 4 4 6 13 11
22 17 20 5 14 12 12 11 -16 3 6 8 -0 6 2 3 5 6 8 12 9 10
2 9 14 12 14 10 1 -0 1 1 3 0 6 3 4 8 7 13 12 9 10 10
5 7 5 11 12 11 6 2 0 -0 -0 3 11 9 11 8 14 9 10 10 10 10
12 9 8 7 11 13 14 11 8 8 13 16 14 11 14 11 11 10 10 10 10 10
14 12 13 13 12 13 14 15 16 16 15 12 12 10 9 9 8 8 9 9 9 9
12 13 11 11 10 15 18 17 16 15 12 9 7 9 7 7 9 10 11 12 12 13
14 15 12 12 10 10 14 12 9 8 7 8 8 5 6 9 10 10 11 11 14 17
11 15 14 14 13 8 8 7 5 5 7 6 5 5 8 9 9 10 12 13 15 16
9 13 15 14 14 10 7 5 6 5 4 4 5 5 8 8 6 6 14 16 14 13
12 12 17 13 11 12 11 9 8 7 6 6 7 7 7 6 6 9 16 17 10 16
Height
3101 3103 3103 3104 3104 3104 3106 3107 3108 3107 3101 3107 3110 3111 3114 3117 3117 3118 3117 3117 3116 3114
3096 3097 3096 3096 3097 3098 3099 3099 3101 3098 3101 3102 3102 3107 3109 3109 3109 3109 3109 3108 3106 3104
3089 3090 3091 3092 3091 3092 3093 3093 3092 3094 3096 3097 3098 3100 3101 3100 3101 3101 3100 3099 3097 3094
3083 3083 3084 3084 3083 3085 3086 3087 3088 3091 3091 3093 3091 3094 3093 3093 3093 3093 3092 3090 3087 3085
3077 3076 3076 3076 3077 3078 3079 3082 3083 3084 3084 3085 3085 3085 3085 3086 3085 3084 3082 3081 3079 3077
3071 3070 3070 3070 3070 3072 3074 3075 3076 3076 3077 3078 3078 3077 3078 3079 3077 3076 3074 3072 3070 3067
3064 3063 3063 3064 3064 3065 3066 3067 3068 3068 3069 3070 3070 3070 3070 3069 3069 3068 3066 3063 3061 3059
3053 3054 3055 3055 3056 3057 3058 3059 3059 3060 3061 3061 3062 3063 3062 3062 3061 3060 3057 3055 3052 3049
3045 3045 3045 3046 3046 3047 3048 3049 3049 3050 3051 3053 3053 3054 3054 3053 3052 3050 3048 3046 3043 3041
3035 3035 3036 3036 3037 3039 3039 3039 3040 3042 3044 3045 3045 3045 3045 3045 3043 3041 3040 3037 3034 3032
3026 3026 3027 3027 3029 3030 3031 3032 3033 3034 3036 3037 3037 3037 3037 3036 3035 3033 3031 3028 3025 3023
3017 3017 3017 3019 3021 3021 3022 3023 3025 3026 3028 3029 3029 3029 3029 3028 3026 3024 3022 3019 3017 3016
3008 3007 3007 3009 3011 3011 3013 3015 3016 3018 3019 3020 3021 3021 3021 3020 3018 3017 3015 3013 3012 3011
2999 2998 2998 2998 3000 3002 3004 3006 3008 3009 3010 3011 3012 3012 3013 3012 3011 3010 3009 3007 3007 3007